Lid_Strength_Index
2 2 2 1 1 1 1 2 1 1 1 1 1 1 1 1 2 5 7 6 4 1 -0 4 5 7 7 9 7 7 12 13 12 11 9 7 8 7 7 8 6 5 5 4 4
2 2 2 2 2 2 1 2 1 1 1 1 1 1 2 2 4 6 3 -1 -1 -2 3 6 8 9 11 9 9 11 14 12 9 8 9 8 8 9 8 8 8 6 5 4 4
3 3 2 2 2 2 2 1 2 2 1 1 1 2 2 2 7 5 -3 -1 -3 -2 5 6 7 6 10 11 10 11 12 10 9 8 7 7 7 8 9 10 8 7 5 5 6
3 3 3 2 2 2 2 2 1 2 2 2 2 2 1 4 12 4 -2 -2 -3 1 5 5 6 9 12 12 11 12 10 9 8 7 7 8 6 9 8 8 5 5 5 5 6
4 3 3 3 3 2 2 2 2 2 2 2 2 2 4 7 7 3 -2 -2 -0 3 4 5 7 9 11 11 11 13 11 9 8 7 7 6 7 8 8 7 5 4 4 5 6
4 4 3 3 3 3 2 2 2 2 2 2 2 2 5 10 5 0 -0 0 2 5 6 5 7 8 10 11 12 10 10 10 9 9 9 8 8 7 8 6 4 5 6 5 6
4 4 4 3 3 3 3 3 3 2 2 2 2 2 5 8 3 1 2 4 3 4 5 4 6 8 9 10 9 9 11 10 10 10 9 8 10 9 7 7 8 7 7 6 6
4 4 4 4 3 3 3 2 2 2 2 2 2 4 9 3 3 4 3 4 3 3 4 4 6 8 9 9 9 11 12 15 12 10 9 9 12 9 7 8 9 8 7 6 6
5 4 4 4 4 3 3 3 2 2 1 2 5 6 8 1 3 2 3 4 4 3 4 3 6 9 9 12 14 13 16 14 12 10 9 10 12 8 7 7 8 10 9 8 8
5 5 5 4 4 4 3 3 3 3 2 2 3 8 5 5 5 4 4 3 5 6 6 7 10 11 13 14 17 15 14 13 13 10 10 11 11 9 7 7 7 8 9 9 8
5 5 5 5 4 4 5 6 7 7 6 7 6 6 4 2 4 5 4 4 5 7 11 10 13 14 12 11 10 11 12 12 10 9 10 11 11 10 8 8 9 9 9 8 8
6 6 5 5 5 5 7 8 5 8 10 5 4 5 3 3 5 5 3 7 8 11 10 12 14 10 9 9 10 10 11 12 10 8 10 11 11 10 9 9 9 9 8 8 8
6 6 6 5 5 6 7 5 3 5 10 7 5 5 4 4 6 7 5 7 9 10 10 12 10 8 9 10 11 11 12 12 12 9 10 11 13 12 9 8 8 8 8 8 7
6 6 6 6 7 7 7 4 5 6 13 10 7 6 6 6 8 5 4 7 9 10 10 11 9 9 10 10 10 13 10 10 10 12 15 11 17 14 11 10 9 8 8 8 8
6 6 6 7 10 9 6 5 5 6 19 7 8 6 6 8 7 6 5 7 10 10 10 11 10 10 11 10 9 11 9 10 10 13 15 14 16 14 12 11 10 9 9 8 7
7 6 6 8 9 7 6 6 7 13 19 9 8 9 10 8 8 7 7 7 7 9 10 10 8 9 10 7 8 8 9 11 12 14 17 15 15 14 13 12 11 9 8 7 8
7 7 8 8 10 7 7 8 14 17 8 10 9 9 11 10 10 9 10 11 12 14 14 10 10 7 7 10 8 10 13 17 18 19 17 12 14 13 11 8 7 7 7 7 7
8 8 8 8 9 7 7 11 17 11 10 8 9 9 11 10 10 9 9 11 9 9 13 15 17 10 8 10 12 12 13 18 21 20 16 12 16 12 8 7 7 8 8 8 8
8 10 8 7 8 7 10 15 14 11 9 10 10 12 12 10 11 10 11 10 9 9 13 15 16 8 8 7 9 12 16 11 16 15 18 15 12 9 8 8 8 7 8 9 8
11 10 8 5 6 8 12 14 12 9 9 9 13 11 14 13 12 12 11 8 9 8 8 11 16 10 8 7 8 11 10 16 16 21 22 17 16 15 11 9 8 8 7 8 7
11 11 6 4 6 11 15 13 10 8 9 10 12 13 13 13 12 12 11 8 7 8 8 11 13 13 10 11 12 12 13 14 15 16 21 21 17 11 11 9 9 7 7 8 7
12 14 7 6 11 13 14 10 10 10 8 10 10 11 12 12 12 12 11 9 6 7 11 10 13 17 14 9 8 10 12 13 18 19 17 18 17 9 10 8 7 7 6 6 6
12 12 7 7 14 14 12 11 10 10 10 10 11 10 11 13 14 10 10 7 7 8 11 10 14 17 15 12 9 12 11 12 13 14 17 19 17 8 8 8 7 7 6 5 6
12 12 10 10 10 13 13 12 11 8 10 11 11 11 12 13 11 12 11 8 6 7 7 8 12 14 18 15 12 14 12 11 13 17 17 16 14 11 9 9 8 7 7 6 5
10 11 12 15 13 12 11 12 12 13 11 11 12 11 13 15 13 13 10 9 8 7 9 10 14 13 12 11 11 12 12 11 14 13 16 13 13 11 10 9 8 7 7 6 6
10 13 12 14 12 11 11 12 12 12 12 12 13 12 12 14 13 13 12 12 11 10 12 11 15 13 14 11 11 12 11 11 10 11 12 12 12 9 8 7 8 8 8 8 6
8 9 11 13 12 12 11 11 11 11 11 11 12 12 13 11 9 10 10 10 10 12 13 13 14 15 17 12 13 16 13 12 12 11 11 15 12 9 9 9 9 9 8 8 7